Weather History for VECC - November, 2012

Change the Weather History Date:

Wednesday, November 28, 2012

  Actual Average Record
Temperature  
Mean Temperature 68 °F -  
Max Temperature 81 °F 80 °F 91 °F (2010)
Min Temperature 56 °F 61 °F 56 °F (2012)
Cooling Degree Days 4    
Growing Degree Days 18 (Base 50)    
Moisture  
Dew Point 55 °F    
Average Humidity 63    
Maximum Humidity 90    
Minimum Humidity 26    
Precipitation  
Precipitation 0.00 in - - ()
Sea Level Pressure  
Sea Level Pressure 29.88 in    
Wind  
Wind Speed 1 mph ()    
Max Wind Speed 8 mph    
Max Gust Speed -    
Visibility 1.2 miles    
Events Fog    
Averages and records for this station are not official NWS values.
T = Trace of Precipitation, MM = Missing Value Source: Averaged Metar Reports

Daily Weather History Graph

Daily Weather History Graph

Search for Another Location

Airport or City:

Trip Planner

Search our weather history database for the weather conditions in past years. The results will help you decide how hot, cold, wet, or windy it might be!

Date:

Astronomy

Nov. 28, 2012 Rise Set
Actual Time 5:57 AM IST 4:50 PM IST
Civil Twilight 5:33 AM IST 5:14 PM IST
Nautical Twilight 5:06 AM IST 5:42 PM IST
Astronomical Twilight 4:38 AM IST 6:09 PM IST
Moon 4:43 PM IST (11/28) 5:30 AM IST (11/28)
Length of Visible Light 11h 41m
Length of Day
10h 52m
Full, 100% of the Moon is Illuminated
Nov 28
Full
Nov 28
Full
Dec 6
Last Quarter
Dec 13
New
Dec 20
First Quarter

Hourly Weather History & Observations

Time (IST) Temp. Dew Point Humidity Pressure Visibility Wind Dir Wind Speed Gust Speed Precip Events Conditions
12:20 AM 62.6 °F 55.4 °F 77% 29.89 in 1.1 mi Calm Calm - N/A   Mist
1:20 AM 60.8 °F 55.4 °F 82% 29.89 in 1.1 mi Calm Calm - N/A   Mist
2:20 AM 60.8 °F 55.4 °F 82% 29.86 in 1.1 mi Calm Calm - N/A   Mist
2:30 AM 61 °F 55 °F 75% 29.90 in 1 mi Calm Calm - -   Haze
3:20 AM 60.8 °F 55.4 °F 82% 29.86 in 1.1 mi Calm Calm - N/A   Mist
4:20 AM 60.8 °F 55.4 °F 82% 29.86 in 1.1 mi Calm Calm - N/A   Mist
5:20 AM 59.0 °F 55.4 °F 88% 29.89 in 0.9 mi Calm Calm - N/A   Mist
5:30 AM 58 °F 56 °F 90% 29.92 in 1 mi Calm Calm - -   Haze
6:20 AM 59.0 °F 55.4 °F 88% 29.92 in 0.7 mi Calm Calm - N/A Fog Shallow Fog
7:20 AM 59.0 °F 55.4 °F 88% 29.92 in 0.7 mi Calm Calm - N/A Fog Shallow Fog
8:20 AM 62.6 °F 55.4 °F 77% 29.95 in 0.9 mi Calm Calm - N/A   Mist
8:30 AM 70 °F 53 °F 44% 29.99 in 1 mi Calm Calm - -   Haze
9:20 AM 66.2 °F 59.0 °F 78% 29.98 in 1.2 mi NW 4.6 mph - N/A   Mist
10:20 AM 69.8 °F 55.4 °F 60% 29.95 in 1.6 mi NNW 4.6 mph - N/A   Haze
11:20 AM 75.2 °F 53.6 °F 47% 29.92 in 1.9 mi West 8.1 mph - N/A   Haze
11:30 AM 80 °F 52 °F 27% 29.94 in 1 mi Calm Calm - -   Haze
12:20 PM 77.0 °F 51.8 °F 41% 29.89 in 2.2 mi WNW 8.1 mph - N/A   Haze
1:20 PM 80.6 °F 50.0 °F 34% 29.83 in 2.2 mi NW 6.9 mph - N/A   Haze
2:20 PM 80.6 °F 50.0 °F 34% 29.83 in - NNW 5.8 mph - N/A   Haze
2:30 PM 80 °F 51 °F 26% 29.85 in 1 mi NW 2.3 mph - -   Haze
3:20 PM 78.8 °F 51.8 °F 39% 29.83 in - NNW 5.8 mph - N/A   Haze
4:20 PM 77.0 °F 53.6 °F 44% 29.83 in 1.9 mi NNW 4.6 mph - N/A   Haze
5:20 PM 73.4 °F 57.2 °F 57% 29.83 in 1.6 mi Calm Calm - N/A   Haze
5:30 PM 73 °F 55 °F 43% 29.84 in 1 mi Calm Calm - -   Haze
6:20 PM 71.6 °F 57.2 °F 60% 29.83 in 1.4 mi Calm Calm - N/A   Haze
7:20 PM 69.8 °F 57.2 °F 64% 29.86 in 1.4 mi WNW 3.5 mph - N/A   Haze
8:20 PM 68.0 °F 53.6 °F 60% 29.86 in 1.4 mi Calm Calm - N/A   Haze
8:30 PM 66 °F 56 °F 61% 29.90 in 1 mi Calm Calm - -   Haze
9:20 PM 66.2 °F 55.4 °F 68% 29.89 in 1.2 mi Calm Calm - N/A   Haze
10:20 PM 66.2 °F 55.4 °F 68% 29.86 in 1.2 mi Calm Calm - N/A   Haze
11:20 PM 62.6 °F 53.6 °F 72% 29.86 in 1.2 mi Calm Calm - N/A   Haze
11:30 PM 62 °F 54 °F 69% 29.89 in 1 mi Calm Calm - -   Haze